WA4FG Weather Reports


Display with metric or nautical units.
time (UTC)temp
F
wind
direction
speed
MPH
gust
MPH
rain 1hr
in
rain 24hr
in
rain mn
in
humidity
%
barometer
mb
20260504100129 46 201 0.0 0.0 0.00 0.00 0.00 96 1017.5
20260504081206 47 201 0.0 0.0 0.00 0.00 0.00 95 1017.3
20260504080655 47 201 0.0 0.0 0.00 0.00 0.00 95 1017.3
20260504080152 47 201 0.0 0.0 0.00 0.00 0.00 95 1017.4
20260504070410 48 201 0.0 0.0 0.00 0.00 0.00 94 1017.7
20260504060215 49 201 0.0 0.0 0.00 0.00 0.00 93 1018.3
20260504050429 50 201 0.0 0.0 0.00 0.00 0.00 91 1018.4
20260504045904 51 201 0.0 0.0 0.00 0.00 0.00 91 1018.4
20260504045334 51 201 0.0 0.0 0.00 0.00 0.00 91 1018.4
20260504044829 51 201 0.0 0.0 0.00 0.00 0.00 91 1018.4
20260504043824 51 201 0.0 0.0 0.00 0.00 0.00 90 1018.5
20260504043300 51 201 0.0 0.0 0.00 0.00 0.00 90 1018.6
20260504042803 51 201 0.0 0.0 0.00 0.00 0.00 90 1018.6
20260504042241 51 201 0.0 0.0 0.00 0.00 0.00 89 1018.6
20260504041738 51 201 0.0 0.0 0.00 0.00 0.00 89 1018.7
20260504041211 51 201 0.0 0.0 0.00 0.00 0.00 88 1018.6
20260504040707 52 201 0.0 0.0 0.00 0.00 0.00 88 1018.6
20260504040206 52 201 0.0 0.0 0.00 0.00 0.00 88 1018.6
20260504035706 52 201 0.0 0.0 0.00 0.00 0.00 88 1018.7
20260504035204 52 201 0.0 0.0 0.00 0.00 0.00 87 1018.8
20260504034657 52 201 0.0 0.0 0.00 0.00 0.00 87 1018.8
20260504034152 52 201 0.0 0.0 0.00 0.00 0.00 86 1018.8
20260504033628 53 201 0.0 0.0 0.00 0.00 0.00 86 1018.9
20260504033105 53 201 0.0 0.0 0.00 0.00 0.00 85 1018.9
20260504032606 53 201 0.0 0.0 0.00 0.00 0.00 85 1019.0
20260504032018 53 201 0.0 0.0 0.00 0.00 0.00 84 1019.0
20260504031453 53 201 0.0 0.0 0.00 0.00 0.00 84 1018.9
20260504030422 54 201 0.0 0.0 0.00 0.00 0.00 83 1018.9
20260504025856 54 201 0.0 0.0 0.00 0.00 0.00 82 1018.7
20260504025347 54 201 0.0 0.0 0.00 0.00 0.00 82 1018.7
20260504024316 55 201 0.0 0.0 0.00 0.00 0.00 81 1018.6
20260504023750 55 201 0.0 0.0 0.00 0.00 0.00 80 1018.6
20260504023224 55 201 0.0 0.0 0.00 0.00 0.00 79 1018.6
20260504022709 55 201 0.0 0.0 0.00 0.00 0.00 79 1018.5
20260504022210 56 201 0.0 0.0 0.00 0.00 0.00 78 1018.4
20260504021141 56 201 0.0 0.0 0.00 0.00 0.00 76 1018.3
20260504020630 57 201 0.0 0.0 0.00 0.00 0.00 76 1018.2
20260504020107 57 201 0.0 0.0 0.00 0.00 0.00 75 1018.3
20260504015600 57 201 0.0 0.0 0.00 0.00 0.00 74 1018.3
20260504015049 58 201 0.0 0.0 0.00 0.00 0.00 74 1018.2
20260504014546 58 201 0.0 0.0 0.00 0.00 0.00 73 1018.2
20260504014043 58 201 0.0 0.0 0.00 0.00 0.00 72 1018.3
20260504013541 59 201 0.0 0.0 0.00 0.00 0.00 71 1018.1
20260504013028 59 201 0.0 0.0 0.00 0.00 0.00 69 1017.9
20260504012529 60 201 0.0 0.0 0.00 0.00 0.00 69 1017.8
20260504012003 60 201 0.0 0.0 0.00 0.00 0.00 67 1017.8
20260504011424 60 201 0.0 0.0 0.00 0.00 0.00 66 1017.9
20260504010858 61 201 0.0 0.0 0.00 0.00 0.00 64 1017.9
20260504010353 61 201 0.0 0.0 0.00 0.00 0.00 64 1017.8
20260504005850 61 201 0.0 0.0 0.00 0.00 0.00 62 1017.7
20260504005322 62 201 0.0 0.0 0.00 0.00 0.00 61 1017.7
20260504004804 62 201 0.0 0.0 0.00 0.00 0.00 60 1017.7
20260504004238 63 201 0.0 0.0 0.00 0.00 0.00 59 1017.6
20260504003211 63 201 0.0 0.0 0.00 0.00 0.00 56 1017.4
20260504002709 64 201 0.0 0.0 0.00 0.00 0.00 57 1017.4
20260504002207 64 201 0.0 0.0 0.00 0.00 0.00 54 1017.4
20260504001647 65 201 0.0 0.0 0.00 0.00 0.00 54 1017.4
20260504000113 66 201 0.0 0.0 0.00 0.00 0.00 53 1017.3
20260503235545 66 201 0.0 0.0 0.00 0.00 0.00 52 1017.4
20260503235042 66 201 0.0 0.0 0.00 0.00 0.00 52 1017.4
20260503234013 66 201 0.0 0.0 0.00 0.00 0.00 51 1017.3
20260503233508 67 201 0.0 0.0 0.00 0.00 0.00 47 1017.3
20260503232443 67 201 0.0 0.0 0.00 0.00 0.00 47 1017.3
20260503231940 67 201 0.0 0.0 0.00 0.00 0.00 49 1017.3
20260503231414 68 201 0.0 0.0 0.00 0.00 0.00 48 1017.4
20260503230848 68 201 0.0 0.0 0.00 0.00 0.00 49 1017.4
20260503230328 68 201 0.0 0.0 0.00 0.00 0.00 46 1017.4
20260503225820 68 201 0.0 0.0 0.00 0.00 0.00 46 1017.4
20260503225315 69 201 0.0 0.0 0.00 0.00 0.00 43 1017.4
20260503224811 69 201 0.0 0.0 0.00 0.00 0.00 44 1017.4
20260503224246 69 201 0.0 0.0 0.00 0.00 0.00 41 1017.5
20260503223729 69 201 0.0 0.0 0.00 0.00 0.00 37 1017.4
20260503223227 69 201 0.0 0.0 0.00 0.00 0.00 41 1017.4
20260503222704 70 201 0.0 0.0 0.00 0.00 0.00 40 1017.4
20260503222150 70 201 0.0 0.0 0.00 0.00 0.00 41 1017.5
20260503221652 70 201 0.0 0.0 0.00 0.00 0.00 37 1017.6
20260503221149 70 202 0.0 0.0 0.00 0.00 0.00 36 1017.7
20260503220649 70 202 0.0 0.0 0.00 0.00 0.00 39 1017.6
20260503220145 70 202 0.0 0.0 0.00 0.00 0.00 41 1017.7
20260503215646 70 202 0.0 0.0 0.00 0.00 0.00 37 1017.8
20260503215134 70 202 0.0 0.0 0.00 0.00 0.00 34 1017.8
20260503214609 70 202 0.0 0.0 0.00 0.00 0.00 37 1017.8
20260503214049 70 202 0.0 0.0 0.00 0.00 0.00 39 1017.8
20260503213527 70 202 0.0 0.0 0.00 0.00 0.00 38 1017.9
20260503213024 70 202 0.0 1.0 0.00 0.00 0.00 39 1018.0
20260503212524 70 146 0.0 0.0 0.00 0.00 0.00 38 1018.0
20260503211504 70 141 0.0 0.0 0.00 0.00 0.00 39 1018.1
20260503211001 70 141 0.0 0.0 0.00 0.00 0.00 41 1018.2
20260503210438 70 142 0.0 0.0 0.00 0.00 0.00 37 1018.2
20260503205938 70 142 0.0 0.0 0.00 0.00 0.00 36 1018.3
20260503205437 70 142 0.0 0.0 0.00 0.00 0.00 38 1018.4
20260503204935 70 142 0.0 0.0 0.00 0.00 0.00 37 1018.4
20260503204435 70 141 0.0 0.0 0.00 0.00 0.00 37 1018.5
20260503203921 70 142 0.0 0.0 0.00 0.00 0.00 37 1018.6
20260503203415 70 142 0.0 0.0 0.00 0.00 0.00 40 1018.7
20260503202911 70 141 0.0 0.0 0.00 0.00 0.00 36 1018.8
20260503202406 70 142 0.0 0.0 0.00 0.00 0.00 36 1018.9
20260503201840 70 142 0.0 0.0 0.00 0.00 0.00 33 1019.1
20260503201341 70 142 0.0 0.0 0.00 0.00 0.00 36 1019.1
20260503200834 71 142 0.0 0.0 0.00 0.00 0.00 37 1019.2
20260503200304 71 142 0.0 0.0 0.00 0.00 0.00 40 1019.2
20260503195802 71 142 0.0 0.0 0.00 0.00 0.00 37 1019.2
20260503194701 71 142 0.0 0.0 0.00 0.00 0.00 37 1019.5
20260503193648 71 143 0.0 0.0 0.00 0.00 0.00 35 1019.8
20260503193144 71 99 0.0 0.0 0.00 0.00 0.00 37 1020.0
20260503192641 71 99 0.0 1.0 0.00 0.00 0.00 36 1019.9
20260503192127 71 89 0.0 1.0 0.00 0.00 0.00 36 1020.0
20260503191626 71 307 0.0 0.0 0.00 0.00 0.00 37 1020.1
20260503191124 71 304 0.0 0.0 0.00 0.00 0.00 36 1020.1
20260503190621 71 211 0.0 0.0 0.00 0.00 0.00 36 1020.3
20260503190101 71 211 0.0 0.0 0.00 0.00 0.00 35 1020.3
20260503185548 71 211 0.0 0.0 0.00 0.00 0.00 36 1020.4
20260503185044 71 211 0.0 0.0 0.00 0.00 0.00 37 1020.6
20260503184541 71 201 0.0 0.0 0.00 0.00 0.00 36 1020.6
20260503184016 71 201 0.0 0.0 0.00 0.00 0.00 35 1020.7
20260503183506 71 201 0.0 0.0 0.00 0.00 0.00 38 1020.9
20260503182942 71 201 0.0 0.0 0.00 0.00 0.00 35 1020.9
20260503182439 70 98 0.0 0.0 0.00 0.00 0.00 35 1021.0
20260503181912 70 100 0.0 0.0 0.00 0.00 0.00 36 1021.0
20260503181409 71 51 0.0 0.0 0.00 0.00 0.00 35 1021.1
20260503180843 71 51 0.0 0.0 0.00 0.00 0.00 33 1021.1
20260503180321 71 51 0.0 0.0 0.00 0.00 0.00 36 1021.1
20260503175755 71 51 0.0 0.0 0.00 0.00 0.00 36 1021.3
20260503175230 70 51 0.0 0.0 0.00 0.00 0.00 38 1021.2
20260503174703 70 91 0.0 0.0 0.00 0.00 0.00 38 1021.3
20260503174158 70 91 0.0 0.0 0.00 0.00 0.00 38 1021.4
20260503173654 70 91 0.0 0.0 0.00 0.00 0.00 38 1021.4
20260503173144 70 91 0.0 0.0 0.00 0.00 0.00 38 1021.4
20260503172641 70 91 0.0 4.0 0.00 0.00 0.00 38 1021.5
20260503172115 69 196 0.0 0.0 0.00 0.00 0.00 37 1021.5
20260503171603 69 196 0.0 0.0 0.00 0.00 0.00 38 1021.6
20260503171105 69 316 0.0 0.0 0.00 0.00 0.00 36 1021.8
20260503170546 69 349 0.0 0.0 0.00 0.00 0.00 35 1021.8
20260503150732 64 159 0.0 0.0 0.00 0.00 0.00 50 1022.1
20260503150207 64 159 0.0 0.0 0.00 0.00 0.00 50 1022.1
20260503131323 49 159 0.0 0.0 0.00 0.00 0.00 98 1021.9
20260503130821 49 159 0.0 0.0 0.00 0.00 0.00 98 1021.9
20260503130321 48 159 0.0 0.0 0.00 0.00 0.00 98 1022.0
20260503120114 44 159 0.0 0.0 0.00 0.00 0.00 96 1021.6
20260503110534 44 159 0.0 0.0 0.00 0.00 0.00 95 1020.9